Location: Lane
(33.5226°N, 79.8788°W)
Time: 21:40:39
(UTC+00:00)

Courier 1B Rocket - Pass Details

Date: 03 October 2022
Orbit: 920 x 1202 km, 28.2° (Epoch: 05 December)

Event Time Altitude Azimuth Distance (km) Brightness Sun altitude
Rises 01:39:19 0° 257° (WSW) 3,698 8.8 -33.1°
Reaches altitude 10° 01:42:06 10° 252° (WSW) 2,712 7.9 -33.6°
Enters shadow 01:46:08 36° 231° (SW) 1,445 6.0 -34.4°
